| time (UTC) | temp C | wind direction | speed KPH | gust KPH | rain 1hr cm | rain 24hr cm | rain mn cm | humidity % | barometer mb |
| 20260508193053 | 17 | 90 | 3.2 | 9.7 | 0.00 | 0.10 | 0.03 | 86 | 1012.9 |
| 20260508192031 | 17 | 79 | 1.6 | 9.7 | 0.00 | 0.10 | 0.03 | 87 | 1012.7 |
| 20260508191027 | 17 | 45 | 1.6 | 6.4 | 0.00 | 0.10 | 0.03 | 87 | 1012.6 |
| 20260508190024 | 18 | 61 | 1.6 | 6.4 | 0.00 | 0.10 | 0.03 | 87 | 1012.4 |
| 20260508185021 | 18 | 64 | 1.6 | 6.4 | 0.00 | 0.13 | 0.03 | 86 | 1012.3 |
| 20260508184019 | 18 | 52 | 1.6 | 3.2 | 0.00 | 0.13 | 0.03 | 85 | 1012.2 |
| 20260508183035 | 18 | 56 | 0.0 | 3.2 | 0.00 | 0.15 | 0.03 | 84 | 1012.0 |
| 20260508182154 | 18 | 45 | 1.6 | 6.4 | 0.00 | 0.15 | 0.03 | 83 | 1011.9 |
| 20260508181110 | 18 | 62 | 1.6 | 6.4 | 0.00 | 0.15 | 0.03 | 83 | 1011.8 |
| 20260508180106 | 18 | 83 | 0.0 | 3.2 | 0.00 | 0.15 | 0.03 | 83 | 1011.8 |
| 20260508175103 | 18 | 82 | 1.6 | 6.4 | 0.00 | 0.18 | 0.03 | 82 | 1011.7 |
| 20260508174123 | 18 | 0.0 | 3.2 | 0.00 | 0.18 | 0.03 | 81 | 1011.7 | |
| 20260508173058 | 18 | 54 | 1.6 | 3.2 | 0.00 | 0.18 | 0.03 | 80 | 1011.5 |
| 20260508172055 | 18 | 56 | 1.6 | 6.4 | 0.00 | 0.18 | 0.03 | 81 | 1011.4 |
| 20260508171051 | 18 | 55 | 1.6 | 6.4 | 0.00 | 0.20 | 0.03 | 82 | 1011.3 |
| 20260508170049 | 18 | 90 | 1.6 | 3.2 | 0.00 | 0.30 | 0.03 | 83 | 1011.5 |
| 20260508165045 | 18 | 51 | 1.6 | 9.7 | 0.00 | 0.33 | 0.03 | 82 | 1011.5 |
| 20260508164103 | 18 | 55 | 3.2 | 6.4 | 0.00 | 0.43 | 0.03 | 83 | 1011.4 |
| 20260508163040 | 18 | 85 | 4.8 | 11.3 | 0.00 | 0.46 | 0.03 | 83 | 1011.4 |
| 20260508162037 | 18 | 96 | 1.6 | 6.4 | 0.00 | 0.51 | 0.03 | 83 | 1011.1 |
| 20260508161034 | 18 | 98 | 3.2 | 11.3 | 0.00 | 0.51 | 0.03 | 84 | 1011.1 |
| 20260508160031 | 18 | 116 | 3.2 | 11.3 | 0.00 | 0.51 | 0.03 | 86 | 1011.1 |
| 20260508155028 | 18 | 61 | 4.8 | 11.3 | 0.00 | 0.53 | 0.03 | 90 | 1011.0 |
| 20260508154025 | 17 | 74 | 1.6 | 6.4 | 0.00 | 0.56 | 0.03 | 90 | 1011.2 |
| 20260508153022 | 18 | 90 | 3.2 | 6.4 | 0.00 | 0.56 | 0.03 | 89 | 1011.7 |
| 20260508152019 | 18 | 77 | 1.6 | 6.4 | 0.00 | 0.56 | 0.03 | 87 | 1011.8 |
| 20260508151016 | 18 | 77 | 3.2 | 6.4 | 0.00 | 0.56 | 0.03 | 85 | 1011.9 |
| 20260508150133 | 18 | 45 | 1.6 | 6.4 | 0.00 | 0.56 | 0.03 | 86 | 1011.9 |
| 20260508145111 | 18 | 62 | 1.6 | 6.4 | 0.00 | 0.56 | 0.03 | 86 | 1011.7 |
| 20260508144107 | 18 | 45 | 1.6 | 6.4 | 0.00 | 0.56 | 0.03 | 85 | 1012.0 |
| 20260508143103 | 18 | 45 | 0.0 | 6.4 | 0.00 | 0.56 | 0.03 | 84 | 1012.4 |
| 20260508142101 | 18 | 45 | 1.6 | 6.4 | 0.00 | 0.56 | 0.03 | 83 | 1012.7 |
| 20260508141058 | 18 | 45 | 3.2 | 6.4 | 0.00 | 0.56 | 0.03 | 84 | 1012.6 |
| 20260508140055 | 18 | 45 | 1.6 | 9.7 | 0.00 | 0.56 | 0.03 | 83 | 1012.7 |
| 20260508135052 | 18 | 54 | 1.6 | 6.4 | 0.00 | 0.56 | 0.03 | 83 | 1012.7 |
| 20260508134049 | 18 | 87 | 4.8 | 11.3 | 0.00 | 0.56 | 0.03 | 82 | 1012.4 |
| 20260508133046 | 18 | 99 | 3.2 | 6.4 | 0.00 | 0.56 | 0.03 | 81 | 1012.3 |
| 20260508132042 | 18 | 72 | 1.6 | 6.4 | 0.00 | 0.56 | 0.03 | 81 | 1012.0 |
| 20260508131039 | 18 | 123 | 3.2 | 6.4 | 0.00 | 0.56 | 0.03 | 81 | 1012.0 |
| 20260508130057 | 18 | 73 | 3.2 | 9.7 | 0.00 | 0.56 | 0.03 | 82 | 1012.2 |
| 20260508125034 | 18 | 75 | 3.2 | 9.7 | 0.00 | 0.56 | 0.03 | 79 | 1012.2 |
| 20260508124030 | 20 | 56 | 4.8 | 11.3 | 0.00 | 0.56 | 0.03 | 76 | 1012.1 |
| 20260508123027 | 20 | 92 | 4.8 | 14.5 | 0.00 | 0.56 | 0.03 | 73 | 1011.9 |
| 20260508122104 | 21 | 68 | 4.8 | 12.9 | 0.00 | 0.56 | 0.03 | 71 | 1011.9 |
| 20260508121022 | 21 | 69 | 3.2 | 6.4 | 0.00 | 0.56 | 0.03 | 72 | 1012.0 |
| 20260508120018 | 20 | 59 | 4.8 | 11.3 | 0.00 | 0.56 | 0.03 | 75 | 1012.2 |
| 20260508115015 | 19 | 64 | 3.2 | 9.7 | 0.00 | 0.56 | 0.03 | 79 | 1012.2 |
| 20260508114112 | 18 | 77 | 3.2 | 11.3 | 0.00 | 0.56 | 0.03 | 81 | 1012.3 |
| 20260508113110 | 18 | 101 | 4.8 | 14.5 | 0.00 | 0.56 | 0.03 | 78 | 1012.1 |
| 20260508112127 | 18 | 52 | 1.6 | 6.4 | 0.00 | 0.56 | 0.03 | 78 | 1012.2 |
| 20260508111104 | 18 | 77 | 1.6 | 6.4 | 0.00 | 0.56 | 0.03 | 78 | 1012.4 |
| 20260508110101 | 18 | 45 | 3.2 | 9.7 | 0.00 | 0.56 | 0.03 | 78 | 1012.4 |
| 20260508105058 | 19 | 81 | 4.8 | 17.7 | 0.00 | 0.56 | 0.03 | 76 | 1012.5 |
| 20260508104055 | 19 | 86 | 6.4 | 12.9 | 0.00 | 0.56 | 0.03 | 74 | 1012.3 |
| 20260508103052 | 19 | 86 | 3.2 | 11.3 | 0.00 | 0.56 | 0.03 | 75 | 1012.3 |
| 20260508102049 | 18 | 64 | 4.8 | 11.3 | 0.00 | 0.56 | 0.03 | 76 | 1012.4 |
| 20260508101106 | 19 | 79 | 3.2 | 9.7 | 0.00 | 0.56 | 0.03 | 75 | 1012.4 |
| 20260508100043 | 19 | 62 | 4.8 | 9.7 | 0.00 | 0.56 | 0.03 | 76 | 1012.4 |
| 20260508095121 | 18 | 103 | 6.4 | 17.7 | 0.00 | 0.56 | 0.03 | 77 | 1012.4 |
| 20260508094037 | 18 | 68 | 4.8 | 12.9 | 0.00 | 0.56 | 0.03 | 78 | 1012.6 |
| 20260508093034 | 18 | 60 | 4.8 | 12.9 | 0.00 | 0.56 | 0.03 | 81 | 1012.5 |
| 20260508092031 | 17 | 64 | 4.8 | 11.3 | 0.00 | 0.56 | 0.03 | 83 | 1012.4 |
| 20260508091028 | 17 | 49 | 3.2 | 9.7 | 0.00 | 0.56 | 0.03 | 84 | 1012.5 |
| 20260508090025 | 17 | 98 | 3.2 | 9.7 | 0.00 | 0.56 | 0.03 | 84 | 1012.6 |
| 20260508085022 | 17 | 52 | 3.2 | 6.4 | 0.00 | 0.56 | 0.03 | 84 | 1012.4 |
| 20260508084018 | 17 | 52 | 1.6 | 6.4 | 0.00 | 0.56 | 0.03 | 86 | 1012.4 |
| 20260508083036 | 16 | 49 | 3.2 | 14.5 | 0.00 | 0.56 | 0.03 | 88 | 1012.3 |
| 20260508082113 | 16 | 45 | 6.4 | 12.9 | 0.00 | 0.56 | 0.03 | 89 | 1012.4 |
| 20260508081110 | 15 | 45 | 3.2 | 11.3 | 0.00 | 0.56 | 0.03 | 91 | 1012.4 |
| 20260508080107 | 15 | 42 | 3.2 | 6.4 | 0.00 | 0.56 | 0.03 | 92 | 1012.3 |
| 20260508075124 | 15 | 31 | 3.2 | 12.9 | 0.00 | 0.56 | 0.03 | 95 | 1012.2 |
| 20260508074101 | 15 | 45 | 4.8 | 9.7 | 0.00 | 0.56 | 0.03 | 96 | 1012.0 |
| 20260508073058 | 15 | 38 | 3.2 | 11.3 | 0.00 | 0.56 | 0.03 | 97 | 1012.1 |
| 20260508072055 | 14 | 87 | 3.2 | 11.3 | 0.00 | 0.56 | 0.03 | 98 | 1012.1 |
| 20260508071052 | 14 | 45 | 3.2 | 6.4 | 0.00 | 0.56 | 0.03 | 99 | 1011.9 |
| 20260508070109 | 14 | 45 | 1.6 | 6.4 | 0.00 | 0.56 | 0.03 | 99 | 1011.9 |
| 20260508065046 | 13 | 45 | 1.6 | 6.4 | 0.00 | 0.56 | 0.03 | 99 | 1011.7 |
| 20260508064043 | 13 | 45 | 0.0 | 3.2 | 0.00 | 0.56 | 0.03 | 99 | 1011.7 |
| 20260508063040 | 13 | 45 | 0.0 | 3.2 | 0.00 | 0.56 | 0.03 | 99 | 1011.6 |
| 20260508062037 | 13 | 0.0 | 3.2 | 0.00 | 0.56 | 0.03 | 99 | 1011.7 | |
| 20260508061034 | 13 | 45 | 0.0 | 3.2 | 0.00 | 0.56 | 0.03 | 99 | 1011.5 |
| 20260508060031 | 13 | 45 | 0.0 | 3.2 | 0.00 | 0.56 | 0.03 | 99 | 1011.3 |
| 20260508055028 | 13 | 0.0 | 3.2 | 0.00 | 0.56 | 0.03 | 99 | 1011.4 | |
| 20260508054026 | 13 | 0.0 | 0.0 | 0.00 | 0.56 | 0.03 | 99 | 1011.4 | |
| 20260508053104 | 13 | 0.0 | 0.0 | 0.00 | 0.56 | 0.03 | 99 | 1011.2 | |
| 20260508052019 | 13 | 0.0 | 0.0 | 0.00 | 0.56 | 0.03 | 99 | 1010.8 | |
| 20260508051016 | 12 | 23 | 0.0 | 3.2 | 0.00 | 0.56 | 0.03 | 99 | 1010.4 |
| 20260508050113 | 12 | 0.0 | 0.0 | 0.00 | 0.56 | 0.03 | 99 | 1010.2 | |
| 20260508045110 | 12 | 0.0 | 3.2 | 0.00 | 0.56 | 0.03 | 99 | 1010.0 | |
| 20260508044107 | 12 | 0.0 | 0.0 | 0.00 | 0.56 | 0.03 | 99 | 1010.0 | |
| 20260508043104 | 12 | 0.0 | 3.2 | 0.00 | 0.56 | 0.03 | 99 | 1009.9 | |
| 20260508042101 | 13 | 0.0 | 3.2 | 0.00 | 0.56 | 0.03 | 99 | 1010.1 | |
| 20260508041058 | 13 | 0.0 | 0.0 | 0.00 | 0.56 | 0.03 | 99 | 1010.0 | |
| 20260508040116 | 13 | 23 | 0.0 | 3.2 | 0.00 | 0.56 | 0.03 | 99 | 1009.9 |
| 20260508035052 | 13 | 0.0 | 0.0 | 0.00 | 0.56 | 0.03 | 99 | 1009.9 | |
| 20260508034049 | 13 | 23 | 0.0 | 3.2 | 0.00 | 0.56 | 0.03 | 99 | 1010.1 |
| 20260508033046 | 13 | 0.0 | 0.0 | 0.00 | 0.56 | 0.03 | 99 | 1010.3 | |
| 20260508032043 | 13 | 0.0 | 0.0 | 0.00 | 0.56 | 0.03 | 99 | 1010.3 | |
| 20260508031100 | 13 | 0.0 | 0.0 | 0.00 | 0.56 | 0.03 | 99 | 1010.3 | |
| 20260508030038 | 13 | 0.0 | 0.0 | 0.00 | 0.56 | 0.03 | 99 | 1010.3 | |
| 20260508025034 | 13 | 0.0 | 0.0 | 0.00 | 0.56 | 0.03 | 99 | 1010.3 | |
| 20260508024031 | 13 | 0.0 | 0.0 | 0.00 | 0.56 | 0.03 | 99 | 1010.4 | |
| 20260508023028 | 13 | 0.0 | 0.0 | 0.00 | 0.56 | 0.03 | 99 | 1010.3 | |
| 20260508022045 | 13 | 0.0 | 3.2 | 0.00 | 0.56 | 0.03 | 99 | 1010.3 | |
| 20260508021022 | 13 | 0.0 | 3.2 | 0.00 | 0.56 | 0.03 | 99 | 1010.3 | |
| 20260508020019 | 13 | 23 | 0.0 | 3.2 | 0.00 | 0.56 | 0.03 | 99 | 1010.1 |
| 20260508015057 | 13 | 30 | 0.0 | 3.2 | 0.00 | 0.56 | 0.03 | 99 | 1010.1 |
| 20260508014113 | 13 | 45 | 0.0 | 3.2 | 0.00 | 0.56 | 0.03 | 99 | 1010.3 |
| 20260508013151 | 13 | 45 | 0.0 | 3.2 | 0.00 | 0.56 | 0.03 | 99 | 1010.3 |
| 20260508012107 | 13 | 0.0 | 3.2 | 0.00 | 0.56 | 0.03 | 99 | 1010.4 | |
| 20260508011104 | 13 | 0.0 | 0.0 | 0.00 | 0.56 | 0.03 | 99 | 1010.4 | |
| 20260508010122 | 13 | 45 | 0.0 | 3.2 | 0.00 | 0.56 | 0.03 | 99 | 1010.5 |
| 20260508005058 | 13 | 0.0 | 0.0 | 0.00 | 0.56 | 0.03 | 99 | 1010.5 | |
| 20260508004055 | 13 | 45 | 0.0 | 3.2 | 0.03 | 0.56 | 0.03 | 99 | 1010.7 |
| 20260508003113 | 13 | 0.0 | 3.2 | 0.03 | 0.56 | 0.03 | 99 | 1010.8 | |
| 20260508002049 | 13 | 45 | 0.0 | 3.2 | 0.03 | 0.56 | 0.03 | 99 | 1011.0 |
| 20260508001107 | 13 | 45 | 0.0 | 3.2 | 0.03 | 0.56 | 0.03 | 99 | 1011.0 |
| 20260508000104 | 13 | 24 | 0.0 | 3.2 | 0.03 | 0.56 | 0.03 | 99 | 1011.1 |
| 20260507235101 | 13 | 0.0 | 3.2 | 0.03 | 0.56 | 0.03 | 99 | 1011.1 | |
| 20260507234037 | 13 | 338 | 0.0 | 3.2 | 0.00 | 0.53 | 0.00 | 99 | 1011.3 |
| 20260507233034 | 13 | 0.0 | 3.2 | 0.00 | 0.53 | 0.00 | 99 | 1011.6 | |
| 20260507232032 | 13 | 0.0 | 3.2 | 0.00 | 0.53 | 0.00 | 99 | 1011.6 | |
| 20260507231028 | 13 | 45 | 0.0 | 3.2 | 0.00 | 0.53 | 0.00 | 99 | 1011.6 |
| 20260507230026 | 13 | 248 | 0.0 | 9.7 | 0.00 | 0.53 | 0.00 | 99 | 1011.8 |
| 20260507225023 | 13 | 315 | 0.0 | 3.2 | 0.00 | 0.53 | 0.00 | 99 | 1011.9 |
| 20260507224020 | 13 | 0.0 | 0.0 | 0.00 | 0.53 | 0.00 | 99 | 1011.7 | |
| 20260507223017 | 13 | 0.0 | 3.2 | 0.00 | 0.53 | 0.00 | 99 | 1011.8 | |
| 20260507222113 | 13 | 0.0 | 3.2 | 0.00 | 0.53 | 0.00 | 99 | 1011.6 | |
| 20260507221110 | 13 | 0.0 | 3.2 | 0.00 | 0.53 | 0.00 | 99 | 1011.6 | |
| 20260507220107 | 13 | 0.0 | 0.0 | 0.00 | 0.53 | 0.00 | 99 | 1011.4 | |
| 20260507215104 | 13 | 0.0 | 3.2 | 0.03 | 0.53 | 0.53 | 99 | 1011.3 | |
| 20260507214102 | 13 | 0.0 | 3.2 | 0.03 | 0.53 | 0.53 | 99 | 1011.3 | |
| 20260507213058 | 13 | 315 | 0.0 | 3.2 | 0.03 | 0.53 | 0.53 | 99 | 1011.5 |
| 20260507212055 | 14 | 0.0 | 0.0 | 0.03 | 0.53 | 0.53 | 99 | 1011.5 | |
| 20260507211053 | 14 | 0.0 | 0.0 | 0.03 | 0.53 | 0.53 | 99 | 1011.7 | |
| 20260507210049 | 14 | 315 | 1.6 | 3.2 | 0.03 | 0.53 | 0.53 | 99 | 1011.6 |
| 20260507205046 | 14 | 315 | 0.0 | 3.2 | 0.00 | 0.51 | 0.51 | 99 | 1011.6 |
| 20260507204043 | 14 | 0.0 | 0.0 | 0.03 | 0.51 | 0.51 | 99 | 1011.6 | |
| 20260507203041 | 14 | 315 | 1.6 | 3.2 | 0.03 | 0.51 | 0.51 | 99 | 1011.6 |
| 20260507202037 | 14 | 315 | 1.6 | 3.2 | 0.03 | 0.51 | 0.51 | 99 | 1011.5 |
| 20260507201035 | 14 | 0 | 3.2 | 6.4 | 0.03 | 0.51 | 0.51 | 99 | 1011.3 |
| 20260507200031 | 14 | 45 | 1.6 | 3.2 | 0.03 | 0.51 | 0.51 | 99 | 1011.2 |
| 20260507195049 | 14 | 0.0 | 0.0 | 0.05 | 0.51 | 0.51 | 99 | 1011.1 | |
| 20260507194026 | 14 | 90 | 0.0 | 3.2 | 0.03 | 0.48 | 0.48 | 99 | 1011.0 |